Hourly Data Report for June 29, 2012

All times are specified in Local Standard Time (LST). Add 1 hour to adjust for Daylight Saving Time where and when it is observed.

SAINT JOHN A
NEW BRUNSWICK

45°18'58.000" N
65°53'24.000" W
108.80 m
8104901
71609
YSJ

Download Data

Hourly Data (June 2012)
Hourly Data Report for June 29, 2012
Temp Definition
°C
Dew Point Temp Definition
°C
Rel Hum Definition
%
Wind Dir Definition
10's deg

Wind Spd Definition
km/h
Visibility Definition
km
Stn Press Definition
kPa
Hmdx Definition


Wind Chill Definition


Weather Definition


TIME
00:00 Legend Double Dagger 11.7 11.7 100 21 10 10.0 99.17     LegendNANA
01:00 Legend Double Dagger 11.3 11.3 100 21 7 10.0 99.17     LegendNANA
02:00 Legend Double Dagger 12.0 12.0 100 19 8 1.2 99.13     Fog
03:00 Legend Double Dagger 11.9 11.9 100 19 5 0.4 99.10     Fog
04:00 Legend Double Dagger 11.9 11.9 100 20 12 0.4 99.11     Fog
05:00 Legend Double Dagger 13.0 13.0 100 18 7 0.4 99.12     Fog
06:00 Legend Double Dagger 13.5 13.5 100 21 6 10.0 99.16     LegendNANA
07:00 Legend Double Dagger 14.8 14.5 98 20 12 10.0 99.17     LegendNANA
08:00 Legend Double Dagger 17.6 15.4 87 20 15 10.0 99.20     Mainly Clear
09:00 Legend Double Dagger 18.1 15.2 83 20 13 10.0 99.18     LegendNANA
10:00 Legend Double Dagger 22.2 15.9 67 23 18 10.0 99.12 27   LegendNANA
11:00 Legend Double Dagger 21.2 15.4 69 20 24 10.0 99.13 25   Cloudy
12:00 Legend Double Dagger 21.6 15.3 67 20 22 10.0 99.14 26   LegendNANA
13:00 Legend Double Dagger 20.7 16.0 74 19 22 10.0 99.09 25   LegendNANA
14:00 Legend Double Dagger 21.2 16.3 73 21 25 10.0 99.00 26   Mostly Cloudy
15:00 Legend Double Dagger 19.6 16.3 81 19 28 10.0 99.01     LegendNANA
16:00 Legend Double Dagger 19.2 15.7 80 21 28 10.0 98.94     LegendNANA
17:00 Legend Double Dagger 16.5 15.7 95 20 30 0.8 98.91     Fog
18:00 Legend Double Dagger 15.8 15.5 98 21 15 0.8 98.88     Fog
19:00 Legend Double Dagger 16.0 15.2 95 20 18 4.8 98.89     Fog
20:00 Legend Double Dagger 16.0 15.4 96 22 28 6.4 98.88     Fog
21:00 Legend Double Dagger 16.0 15.4 96 21 29 4.8 98.92     Fog
22:00 Legend Double Dagger 15.2 14.9 98 21 22 3.2 98.97     Fog
23:00 Legend Double Dagger 14.6 14.6 100 17 10 0.6 98.92     Fog

Notes on Data Quality.

Legend

  • E = Estimated
  • M = Missing
  • NA = Not Available
  • ‡ = Partner data that is not subject to review by the National Climate Archives
Date modified: